Regional Weather Roundup
Issued by NWS Wakefield, VA

Home | Current Version | Previous Version | Graphics & Text | Print | Product List | Glossary On
Versions: 1 2 3 4 5 6 7 8 9 10 11 12 13 14 15 16 17 18 19 20 21 22 23 24 25 26 27 28 29 30 31 32 33 34 35 36 37 38 39 40 41 42 43 44 45 46 47 48 49 50
636
ASUS41 KAKQ 021615
RWRAKQ

REGIONAL WEATHER ROUNDUP
NATIONAL WEATHER SERVICE WAKEFIELD VA
1200 PM EDT MON MAY 02 2016

Note: "fair" indicates few or no clouds below 12,000 feet with no
significant weather and/or obstructions to visibility. * = Denotes
station may not report precipitation (e.g., rain,snow,etc.),
thunder or fog.

VAZ042-051-052>054-056-021700-
NORTHERN VIRGINIA

CITY           SKY/WX    TMP DP  RH WIND       PRES   REMARKS
WASH NATIONAL  CLOUDY    63  59  87 S8        29.95F
DULLES         PTSUNNY   65  60  84 S8        29.94F
FORT BELVOIR   CLOUDY    62  59  88 VRB5      29.95F
QUANTICO       CLOUDY    63  60  90 S9        29.96F
FREDERICKSBRG* CLOUDY    65  65 100 S7        29.95S
STAFFORD*      CLOUDY    62  59  90 S3        30.00S
WARRENTON      CLOUDY    67  58  74 S6        29.94F
CULPEPER*      CLOUDY    65  62  92 SW5       29.96F
MANASSAS*      CLOUDY    64  63  94 S5        29.95F
LEESBURG*      CLOUDY    63  63 100 S7        29.94F
WINCHESTER     FAIR      75  63  64 SW9       29.91F
FRONT ROYAL*   FAIR      75  63  64 SW7       29.90F
LURAY*         FAIR      75  63  64 S8        29.92F
$$

VAZ048-049-060>072-079>083-021700-
CENTRAL AND SOUTH CENTRAL VIRGINIA

CITY           SKY/WX    TMP DP  RH WIND       PRES   REMARKS
RICHMOND       PTSUNNY   75  66  73 SW9       29.96F
CHESTERFIELD*  PTSUNNY   79  61  53 S8        29.98S
PETERSBURG*    FAIR      80  67  64 SW6       29.97F
HANOVER        PTSUNNY   73  66  78 S9        29.96F
TAPPAHANNOCK*  CLOUDY    66  66 100 CALM      29.98S
QUINTON*       CLOUDY    74  67  78 W6        29.96S
CHARLOTTSVILLE FAIR      75  65  70 SW7       29.94F
GORDONSVILLE*  PTSUNNY   71  66  84 S6        29.95S
ORANGE*        FAIR      73  66  78 CALM      29.96F
LOUISA*        CLOUDY    73  66  78 SW6       29.95S
BUMPASS*       CLOUDY    68  65  90 CALM      29.96F
FARMVILLE*     PTSUNNY   79  65  62 S7        29.95F
CREWE*         PTSUNNY   79  67  66 W5        29.97S
FORT PICKETT*  NOT AVBL
CHASE CITY*    FAIR      77  67  71 SW3       29.99F
CLARKSVILLE*   FAIR      79  66  65 SW6       29.98F
SOUTH HILL*    FAIR      78  67  69 SW10      30.04F
LAWRENCEVILLE* FAIR      79  68  68 SW8       29.98F
EMPORIA*       FAIR      79  68  69 SW7       29.99F
$$

VAZ088>098-021700-
SOUTHEAST VIRGINIA

CITY           SKY/WX    TMP DP  RH WIND       PRES   REMARKS
NORFOLK        FAIR      79  67  66 SW13      29.96F
VIRGINIA BEACH PTSUNNY   82  67  60 SW17G23   29.96F
NORFOLK NAVAL  PTSUNNY   79  68  69 SW13G18   29.98S
WEST POINT*    PTSUNNY   75  67  76 SW6       29.97F
SALUDA*        PTSUNNY   70  68  93 N5        29.96F
NEWPORT NEWS   PTSUNNY   78  68  71 SW12      29.97F
LANGLEY AFB    CLOUDY    77  68  74 SW15      29.97S
FORT EUSTIS    PTSUNNY   78  67  69 VRB7      29.95F
WILLIAMSBURG*  FAIR      81  68  65 W9        29.97F
HR EXEC AP*    PTSUNNY   81  70  69 SW8G16    29.99F
FRANKLIN*      FAIR      79  67  67 SW9       29.98F
US460-WAKEFLD  FAIR      80  67  64 W10       29.97F
$$

VAZ020-022-025-037-045-021700-
WEST CENTRAL AND SOUTHWEST VIRGINIA

CITY           SKY/WX    TMP DP  RH WIND       PRES   REMARKS
STAUNTON*      FAIR      78  64  60 SW9G20    29.96F
WAYNESBORO*    FAIR      76  59  55 W12G18    29.97S
HOT SPRINGS VA PTSUNNY   67  59  75 W17G26    30.05S
LYNCHBURG      FAIR      77  65  66 SW9       29.99S
DANVILLE       FAIR      79  66  64 W9        29.98F
SOUTH BOSTON*  FAIR      78  67  68 CALM      29.98F
MARTINSVILLE   FAIR      76  63  63 SW5       30.01F
ROANOKE        FAIR      78  61  55 SW12G17   29.99F
BLACKSBURG     PTSUNNY   73  61  67 NW3       30.06S
DUBLIN*        PTSUNNY   74  63  68 SW6       30.04F
MARION*        PTSUNNY   73  61  65 SW9G16    30.08S
HILLSVILLE*    FAIR      72  58  60 W7        30.05F
RICHLANDS*     PTSUNNY   70  60  69 CALM      30.05F
WISE*          PTSUNNY   72  54  53 W9        30.05F
ABINGDON*      PTSUNNY   73  62  67 W7        30.04F
$$

MDZ021>025-VAZ099-100-021700-
SOUTHERN MARYLAND AND THE DELMARVA PENINSULA

CITY           SKY/WX    TMP DP  RH WIND       PRES   REMARKS
PATUXENT RIVER CLOUDY    63  58  83 SE7       29.95S
BAY BRIDGE APT NOT AVBL
LEONARDTOWN    CLOUDY    64  61  88 SW6       29.97S
DOVER          CLOUDY    56  56  99 SE3       29.94F
GEORGETOWN     CLOUDY    61  59  93 CALM      29.96S
EASTON         CLOUDY   N/A N/A N/A S3        29.99S FOG
CAMBRIDGE      CLOUDY   N/A N/A N/A CALM      29.94F
SALISBURY      MOSUNNY   67  64  90 SW6       29.94F
OCEAN CITY     CLOUDY    58  56  93 VRB5      29.96F
WALLOPS ISLAND CLOUDY    62  60  93 SE6       29.97F FOG
ACCOMACK*      CLOUDY    70  -4   5 W7        29.97S
$$

NCZ012>017-030>032-021700-
NORTH CENTRAL AND EASTERN NORTH CAROLINA

CITY           SKY/WX    TMP DP  RH WIND       PRES   REMARKS
ROANOKE RAPIDS FAIR      77  68  73 SW6       30.00F
RALEIGH        PTSUNNY   79  68  69 SW10      30.01F
ELIZABETH CITY PTSUNNY   78  68  71 SW13G23   29.99F
AHOSKIE*       MOSUNNY   77  68  72 CALM      30.00S
EDENTON*       PTSUNNY   78  70  74 W7        30.01F
CURRITUCK*     PTSUNNY   78  68  71 SW10G20   29.99F
KILL DEVIL HLS PTSUNNY   81  68  65 SW8G17    29.99F
MANTEO         NOT AVBL
CAPE HATTERAS  CLOUDY    75  69  81 SW9       30.06S
TARBORO*       PTSUNNY   79  68  69 SW8       30.02S
GOLDSBORO      NOT AVBL
WASHINGTON     CLOUDY    78  69  73 W10       30.02F
GREENVILLE     CLOUDY    79  70  73 SW10      30.04S HAZE
NEW BERN       CLOUDY    81  68  64 SW9G21    30.04F
WILMINGTON     PTSUNNY   83  68  60 SW10      30.05F
$$

VAZ048-021700-
ELSEWHERE

CITY           SKY/WX    TMP DP  RH WIND       PRES   REMARKS
HARRISBURG PA  CLOUDY    55  52  89 SE5       29.93S FOG
BALTIMORE      CLOUDY    59  57  93 S6        29.94F FOG
ANNAPOLIS      CLOUDY    57  56  96 SE9       29.95F FOG
ANDREWS AFB    CLOUDY    64  63  96 SW7       29.94F
PHILADELPHIA   CLOUDY    54  49  83 VRB3      29.96S FOG
HENDERSON NC   SUNNY     79  68  67 S8        29.99F
GREENSBORO     PTSUNNY   78  65  63 CALM      30.00F
ROCKY MOUNT    PTSUNNY   79  68  69 SW13      30.01F
$$

VAZ100-021700-
MARINE

STATION/POSITION TIME  TEMP    WIND        PRES    WAVE   SWELL
                       AIR SEA DIR/SP/G            HT/PER HT/PER
                 (UTC) (F)     (DEG/KT/KT) (MB)    (FT/S) (FT/S)
BRANDYWINE LGT   1500   53     140/  8/  8 1014.8F
CAPE MAY NJ      1500   53 57  100/  7/ 10 1014.0F
LEWES DE         1500   53 55  150/ 10/ 12 1014.0F
15NM E FENWICK I 1550   53 52              1014.1F   4/10
OCEAN-CITY-INLET 1500   54 54   90/  3/  4 1014.4F
WACHAPREAGUE VA  1500   62 60   90/  2/  2 1014.6F
THOMAS POINT MD  1600   55 57  180/  6/  7 1015.5F
GOOSES REEF MD   1500   56 58  200/  6/  8 1015.6F   0
COVE POINT MD    1500   56     190/  8/  9 1014.9F
SOLOMONS ISLAND  1500   58 59  110/  3/  4   N/A
BISHOPS HEAD MD  1500   58 58  100/  4/  5 1014.1F
PINEY POINT MD   1500          150/  7/  7   N/A
POTOMAC MD       1500   58 59   60/  4/  6 1014.1F   0
CAMBRIDGE MD     1500   60 60  160/  4/  7 1013.6F
LEWISETTA VA     1500   59 59  190/  1/  2 1014.6F
RAPPAHANNOCK LGT 1500          190/  8/  8 1015.5S
STINGRAY PT      1500   66 61  330/  6/  6 1015.3R   0
YORK RVR RNG VA  1500   69     280/  5/  6 1014.3S
YORKTOWN VA      1500   73 62  260/ 11/ 13 1014.5R
JAMESTOWN VA     1500   73 67  240/  8/ 10   N/A     1
DOMINION TERM VA 1500   69     230/  8/ 10 1015.0F
KIPTOPEKE VA     1500      60  250/  9/ 13   N/A
CHES BAY BRIDGE  1500   71 61  210/ 12/ 13 1014.6R
CAPE HENRY VA    1500   74     230/ 12/ 17   N/A
CHESAPEAKE LGHT  1500   67     220/ 15/ 16 1015.7S
WILLOUBY STN VA  1500   69     240/ 12/ 13 1015.9F
CAPE HENRY BUOY  1512      59                N/A     4/11   2/11
CAPE CHARLES BUO 1526      60                N/A     3/ 8   2/ 8
OFFSHORE WE BUOY 1521      55                N/A     4/11   3/11
64NM E OF VA BCH 1550   58 53  210/ 12/ 14 1015.4F   5/10   3/10
DUCK PIER NC     1500   73 68  220/ 14/ 17 1015.7F
44100 DUCK FRF   1524      59                N/A     4/11   3/11
44056 DUCK FRF   1511      59                N/A     3/11   2/11
OREGON INLET NC  1500   70 67  210/ 15/ 17 1016.7F
HATTERAS NC      1500   74 67  220/  9/ 15 1017.7F
DIAMOND SHLS NC  1550   74 73  220/ 16/ 19 1017.8S   4/11   3/11
CAPE LOOKOUT NC  1500   74     220/ 11/ 15 1018.0FC1F1C2F2C3F3C4F4C5F5C6F6C7F7C8M1C9!



USA.gov is the U.S. government's official web portal to all federal, state and local government web resources and services.